DW2973 Weather Reports


time (UTC)temp
F
wind
direction
speed
knots
gust
knots
rain 1hr
in
rain 24hr
in
rain mn
in
humidity
%
barometer
mb
20260507064515 50 218 0.0 0.0 0.00 0.00 0.00 86 1014.7
20260507063010 49 252 0.0 0.0 0.00 0.00 0.00 90 1014.6
20260507061506 47 252 0.0 0.0 0.00 0.00 0.00 92 1014.5
20260507060001 45 252 0.0 0.0 0.00 0.00 0.00 93 1014.4
20260507054558 44 252 0.0 0.0 0.00 0.00 0.00 93 1014.4
20260507053122 43 252 0.0 0.0 0.00 0.00 0.00 93 1014.4
20260507051555 42 196 0.0 0.0 0.00 0.00 0.00 92 1014.2
20260507050053 41 196 0.0 0.0 0.00 0.00 0.00 92 1014.2
20260507044603 41 196 0.0 0.0 0.00 0.00 0.00 92 1014.0
20260507043051 40 196 0.0 0.0 0.00 0.00 0.00 92 1014.0
20260507041553 40 196 0.0 0.0 0.00 0.00 0.00 92 1013.9
20260507040049 39 196 0.0 0.0 0.00 0.00 0.00 91 1013.9
20260507034548 39 196 0.0 0.0 0.00 0.00 0.00 91 1013.8
20260507033100 39 196 0.0 0.0 0.00 0.00 0.00 91 1013.7
20260507031557 39 196 0.0 0.0 0.00 0.00 0.00 91 1013.6
20260507024602 39 196 0.0 0.0 0.00 0.00 0.00 90 1013.4
20260507023042 39 196 0.0 0.0 0.00 0.00 0.00 90 1013.3
20260507021550 39 196 0.0 0.0 0.00 0.00 0.00 89 1013.2
20260507020053 39 196 0.0 0.0 0.00 0.00 0.00 89 1013.2
20260507014550 39 196 0.0 0.0 0.00 0.00 0.00 89 1013.2
20260507013042 39 196 0.0 0.0 0.00 0.00 0.00 88 1013.1
20260507011544 39 196 0.0 0.0 0.00 0.00 0.00 88 1013.1
20260507010041 40 196 0.0 0.0 0.00 0.00 0.00 87 1013.0
20260507004533 40 196 0.0 0.0 0.00 0.00 0.00 87 1013.0
20260507003030 41 196 0.0 0.0 0.00 0.00 0.00 87 1013.0
20260507001534 41 196 0.0 0.0 0.00 0.00 0.00 86 1013.0
20260507000028 41 196 0.0 0.0 0.00 0.00 0.00 86 1012.9
20260506234526 41 196 0.0 0.0 0.00 0.00 0.00 85 1012.8
20260506233025 42 196 0.0 0.0 0.00 0.00 0.00 85 1012.8
20260506231523 42 196 0.0 0.0 0.00 0.00 0.00 84 1012.8
20260506230023 42 196 0.0 0.0 0.00 0.00 0.00 84 1012.7
20260506224521 43 196 0.0 0.0 0.00 0.00 0.00 83 1012.7
20260506223020 43 196 0.0 0.0 0.00 0.00 0.00 83 1012.6
20260506221517 43 196 0.0 0.0 0.00 0.00 0.00 82 1012.5
20260506220015 43 196 0.0 0.0 0.00 0.00 0.00 81 1012.6
20260506214515 44 196 0.0 0.0 0.00 0.00 0.00 80 1012.5
20260506213014 44 196 0.0 0.0 0.00 0.00 0.00 80 1012.4
20260506211519 44 196 0.0 0.0 0.00 0.00 0.00 79 1012.4
20260506210016 45 196 0.0 0.0 0.00 0.00 0.00 77 1012.3
20260506204510 46 196 0.0 0.0 0.00 0.00 0.00 75 1012.1
20260506203009 47 196 0.0 0.0 0.00 0.00 0.00 74 1012.1
20260506201509 47 196 0.0 0.0 0.00 0.00 0.00 72 1011.9
20260506200006 48 190 0.0 0.0 0.00 0.00 0.00 70 1011.8
20260506194506 49 190 0.0 0.0 0.00 0.00 0.00 68 1011.7
20260506193005 49 190 0.0 0.0 0.00 0.00 0.00 65 1011.7
20260506191504 50 190 0.0 0.0 0.00 0.00 0.00 63 1011.6
20260506190001 51 254 0.0 0.0 0.00 0.00 0.00 59 1011.3
20260506184600 52 256 0.0 0.0 0.00 0.00 0.00 57 1011.2
20260506183100 53 256 0.0 0.0 0.00 0.00 0.00 55 1011.1
20260506181559 54 256 0.0 0.0 0.00 0.00 0.00 54 1010.8
20260506180057 55 256 0.0 0.0 0.00 0.00 0.00 53 1010.6
20260506174558 55 256 0.0 0.0 0.00 0.00 0.00 54 1010.5
20260506173127 55 348 0.0 0.0 0.00 0.00 0.00 61 1010.5
20260506171605 57 348 0.0 0.0 0.00 0.00 0.00 57 1010.4
20260506170055 56 346 0.0 0.0 0.00 0.00 0.00 56 1010.3
20260506164601 56 32 0.0 0.0 0.00 0.00 0.00 59 1010.4
20260506163105 55 32 0.0 0.0 0.00 0.00 0.00 61 1010.4
20260506161629 56 72 0.0 0.0 0.00 0.00 0.00 60 1010.3
20260506160101 56 60 0.0 0.0 0.00 0.00 0.00 59 1010.1
20260506154555 57 327 0.0 0.0 0.00 0.00 0.00 57 1010.2
20260506153057 57 343 0.9 0.0 0.00 0.00 0.00 57 1010.0
20260506151552 56 360 0.9 0.0 0.00 0.00 0.00 57 1010.0
20260506150052 56 336 0.9 0.0 0.00 0.00 0.00 56 1010.1
20260506144552 57 324 0.9 0.0 0.00 0.00 0.00 56 1010.1
20260506143052 57 17 0.9 0.0 0.00 0.00 0.00 57 1010.1
20260506141551 57 34 0.0 0.0 0.00 0.00 0.00 56 1010.2
20260506140051 57 360 0.0 0.0 0.00 0.00 0.00 57 1010.2
20260506134550 56 355 0.9 0.0 0.00 0.00 0.00 57 1010.0
20260506133050 56 18 1.7 0.0 0.00 0.00 0.00 58 1009.9
20260506131554 56 49 2.6 0.0 0.00 0.00 0.00 59 1009.9
20260506124556 56 32 1.7 0.0 0.00 0.00 0.00 61 1009.7
20260506123048 57 41 1.7 0.0 0.00 0.00 0.00 59 1009.8
20260506121548 57 342 1.7 0.0 0.00 0.00 0.00 59 1009.8
20260506120047 57 33 0.9 0.0 0.00 0.00 0.00 58 1009.8
20260506114546 56 18 1.7 0.0 0.00 0.00 0.00 57 1010.0
20260506113053 57 19 0.9 0.0 0.00 0.00 0.00 57 1009.9
20260506111544 57 9 0.9 0.0 0.00 0.00 0.00 58 1009.9
20260506110052 56 9 0.0 0.0 0.00 0.00 0.00 62 1010.0
20260506104548 55 14 0.9 0.0 0.00 0.00 0.00 63 1010.0
20260506103048 57 13 0.0 0.0 0.00 0.00 0.00 60 1010.2
20260506101550 55 11 0.9 0.0 0.00 0.00 0.00 63 1010.1
20260506100057 54 44 0.9 0.0 0.00 0.00 0.00 62 1010.1
20260506094536 54 19 0.9 0.0 0.00 0.00 0.00 62 1010.1
20260506093042 53 11 0.9 0.0 0.00 0.00 0.00 62 1010.1
20260506091537 53 19 0.9 0.0 0.00 0.00 0.00 62 1010.2
20260506090033 53 36 1.7 0.0 0.00 0.00 0.00 58 1010.1
20260506084540 54 18 0.9 0.0 0.00 0.00 0.00 60 1010.1
20260506083033 54 5 0.9 0.0 0.00 0.00 0.00 58 1009.9
20260506081540 54 11 0.9 0.0 0.00 0.00 0.00 58 1009.7
20260506073038 53 43 0.0 0.0 0.00 0.00 0.00 47 1009.8
20260506071525 52 44 0.0 0.0 0.00 0.00 0.00 50 1009.8